BEL3XW EBBR-LOWW

Flight info

Callsign BEL3XW
Flight time 1h 21m
Altitude 35000
Route SOPOK Y863 ROPUV L607 EMGOD DCT BOMBI DCT BARSU DCT EKSOS DCT LULAR DCT RUDAP DCT BUDEX BUDEX2W
Aircraft A20N/M-SDE2E3FGHIRWXY/LB1

Departure

Time 2026-05-07 14:00
Airport Brussels Airport (EBBR)

Arrival

Time 2026-05-07 15:21
Airport Vienna International Airport (LOWW)
Time Latitude Longitude Altitude Speed Heading
2026-05-07 13:41 50.90514 4.48952 124 ft 0 kts 156°
2026-05-07 13:48 50.90520 4.48948 124 ft 2 kts 156°
2026-05-07 13:49 50.90533 4.48938 123 ft 2 kts 156°
2026-05-07 13:49 50.90547 4.48928 122 ft 2 kts 156°
2026-05-07 13:49 50.90561 4.48918 121 ft 2 kts 156°
2026-05-07 13:49 50.90574 4.48908 120 ft 2 kts 156°
2026-05-07 13:50 50.90583 4.48902 120 ft 1 kts 157°
2026-05-07 13:50 50.90591 4.48889 119 ft 2 kts 97°
2026-05-07 13:50 50.90590 4.48876 118 ft 1 kts 63°
2026-05-07 13:50 50.90587 4.48867 118 ft 0 kts 65°
2026-05-07 13:53 50.90588 4.48870 118 ft 0 kts 66°
2026-05-07 13:53 50.90590 4.48876 118 ft 0 kts 66°
2026-05-07 13:54 50.90593 4.48887 119 ft 1 kts 67°
2026-05-07 13:54 50.90601 4.48918 119 ft 4 kts 66°
2026-05-07 13:54 50.90622 4.48990 119 ft 9 kts 65°
2026-05-07 13:54 50.90656 4.49107 120 ft 13 kts 66°
2026-05-07 13:55 50.90698 4.49253 121 ft 15 kts 65°
2026-05-07 13:55 50.90746 4.49418 119 ft 18 kts 66°
2026-05-07 13:55 50.90802 4.49611 115 ft 16 kts 65°
2026-05-07 13:55 50.90769 4.49719 115 ft 14 kts 192°
2026-05-07 13:56 50.90680 4.49683 119 ft 12 kts 195°
2026-05-07 13:56 50.90602 4.49651 123 ft 12 kts 195°
2026-05-07 13:56 50.90516 4.49616 127 ft 13 kts 195°
2026-05-07 13:56 50.90422 4.49577 132 ft 14 kts 195°
2026-05-07 13:57 50.90320 4.49536 136 ft 15 kts 195°
2026-05-07 13:57 50.90210 4.49491 142 ft 17 kts 195°
2026-05-07 13:57 50.90084 4.49439 146 ft 20 kts 195°
2026-05-07 13:57 50.89940 4.49381 152 ft 22 kts 194°
2026-05-07 13:58 50.89784 4.49318 153 ft 23 kts 195°
2026-05-07 13:58 50.89629 4.49252 155 ft 18 kts 204°
2026-05-07 13:58 50.89524 4.49171 153 ft 18 kts 196°
2026-05-07 13:58 50.89399 4.49120 156 ft 18 kts 194°
2026-05-07 13:59 50.89283 4.49072 157 ft 15 kts 194°
2026-05-07 13:59 50.89177 4.49034 159 ft 13 kts 173°
2026-05-07 13:59 50.89163 4.49163 160 ft 14 kts 70°
2026-05-07 13:59 50.89202 4.49333 158 ft 20 kts 70°
2026-05-07 14:00 50.89316 4.49831 157 ft 86 kts 70°
2026-05-07 14:00 50.89607 4.51079 153 ft 153 kts 69°
2026-05-07 14:00 50.90002 4.52736 682 ft 166 kts 68°
2026-05-07 14:00 50.90463 4.54371 1569 ft 162 kts 63°
2026-05-07 14:01 50.90956 4.55913 2358 ft 163 kts 62°
2026-05-07 14:01 50.91501 4.57575 2876 ft 179 kts 62°
2026-05-07 14:01 50.92109 4.59408 3374 ft 199 kts 62°
2026-05-07 14:01 50.92786 4.61434 3881 ft 221 kts 62°
2026-05-07 14:02 50.93492 4.63708 4499 ft 239 kts 67°
2026-05-07 14:02 50.94087 4.66244 5128 ft 257 kts 72°
2026-05-07 14:02 50.94626 4.68996 6002 ft 265 kts 73°
2026-05-07 14:02 50.95157 4.71778 7010 ft 268 kts 73°
2026-05-07 14:03 50.95629 4.74584 7930 ft 273 kts 83°
2026-05-07 14:03 50.95438 4.77590 8824 ft 279 kts 110°
2026-05-07 14:03 50.94587 4.80327 9740 ft 283 kts 118°
2026-05-07 14:03 50.93639 4.83090 10605 ft 291 kts 119°
2026-05-07 14:04 50.92648 4.85973 11173 ft 308 kts 118°
2026-05-07 14:04 50.91609 4.88999 11757 ft 323 kts 118°
2026-05-07 14:04 50.90525 4.92164 12579 ft 330 kts 119°
2026-05-07 14:04 50.89433 4.95356 13426 ft 335 kts 119°
2026-05-07 14:05 50.88332 4.98573 14242 ft 340 kts 119°
2026-05-07 14:05 50.87198 5.01881 15067 ft 345 kts 119°
2026-05-07 14:05 50.86051 5.05222 15884 ft 349 kts 119°
2026-05-07 14:05 50.84891 5.08597 16685 ft 353 kts 119°
2026-05-07 14:06 50.83718 5.12005 17471 ft 357 kts 119°
2026-05-07 14:06 50.82541 5.15423 18228 ft 361 kts 119°
2026-05-07 14:06 50.81325 5.18950 18976 ft 365 kts 119°
2026-05-07 14:06 50.80116 5.22452 19693 ft 369 kts 119°
2026-05-07 14:07 50.78880 5.26030 20414 ft 373 kts 119°
2026-05-07 14:07 50.77636 5.29625 21106 ft 377 kts 119°
2026-05-07 14:07 50.76371 5.33274 21794 ft 381 kts 119°
2026-05-07 14:07 50.75098 5.36940 22469 ft 385 kts 119°
2026-05-07 14:08 50.73817 5.40625 23119 ft 389 kts 119°
2026-05-07 14:08 50.72521 5.44344 23755 ft 392 kts 120°
2026-05-07 14:08 50.71202 5.48125 24383 ft 396 kts 119°
2026-05-07 14:08 50.69875 5.51921 24993 ft 399 kts 119°
2026-05-07 14:09 50.68539 5.55741 25577 ft 403 kts 119°
2026-05-07 14:09 50.67171 5.59647 26138 ft 406 kts 119°
2026-05-07 14:09 50.65815 5.63514 26668 ft 410 kts 119°
2026-05-07 14:09 50.64444 5.67414 27186 ft 413 kts 120°
2026-05-07 14:10 50.63034 5.71422 27703 ft 416 kts 120°
2026-05-07 14:10 50.61636 5.75388 28191 ft 419 kts 120°
2026-05-07 14:10 50.60234 5.79357 28650 ft 422 kts 120°
2026-05-07 14:10 50.58798 5.83418 29105 ft 425 kts 120°
2026-05-07 14:11 50.57349 5.87509 29543 ft 429 kts 120°
2026-05-07 14:11 50.55902 5.91591 29972 ft 432 kts 120°
2026-05-07 14:11 50.54445 5.95690 30388 ft 435 kts 120°
2026-05-07 14:11 50.52974 5.99828 30828 ft 437 kts 120°
2026-05-07 14:12 50.51490 6.03993 31361 ft 436 kts 120°
2026-05-07 14:12 50.50025 6.08098 31897 ft 434 kts 120°
2026-05-07 14:12 50.48559 6.12198 32364 ft 433 kts 119°
2026-05-07 14:12 50.47084 6.16317 32786 ft 434 kts 119°
2026-05-07 14:13 50.45623 6.20393 33198 ft 433 kts 119°
2026-05-07 14:13 50.44136 6.24531 33569 ft 434 kts 119°
2026-05-07 14:13 50.42658 6.28639 33880 ft 436 kts 119°
2026-05-07 14:13 50.41164 6.32784 34173 ft 438 kts 119°
2026-05-07 14:14 50.39668 6.36928 34430 ft 440 kts 119°
2026-05-07 14:14 50.38155 6.41113 34687 ft 442 kts 119°
2026-05-07 14:14 50.36654 6.45260 34913 ft 443 kts 119°
2026-05-07 14:15 50.33604 6.53668 34982 ft 445 kts 119°
2026-05-07 14:15 50.30556 6.62042 34991 ft 445 kts 119°
2026-05-07 14:16 50.27499 6.70405 34997 ft 444 kts 120°
2026-05-07 14:16 50.24649 6.78928 35004 ft 444 kts 113°
2026-05-07 14:17 50.22607 6.87978 35002 ft 443 kts 104°
2026-05-07 14:17 50.21478 6.97390 35005 ft 442 kts 95°
2026-05-07 14:18 50.20982 7.06855 35005 ft 441 kts 93°
2026-05-07 14:18 50.20513 7.16333 34992 ft 441 kts 94°
2026-05-07 14:19 50.20010 7.25844 34990 ft 441 kts 94°
2026-05-07 14:19 50.19415 7.35344 34999 ft 441 kts 96°
2026-05-07 14:20 50.18576 7.44788 34996 ft 442 kts 97°
2026-05-07 14:20 50.17716 7.54288 34998 ft 442 kts 97°
2026-05-07 14:21 50.16857 7.63722 34990 ft 442 kts 97°
2026-05-07 14:21 50.15995 7.73135 35006 ft 441 kts 97°
2026-05-07 14:22 50.15118 7.82610 34988 ft 441 kts 97°
2026-05-07 14:22 50.14240 7.92040 34987 ft 441 kts 98°
2026-05-07 14:23 50.13353 8.01471 34996 ft 442 kts 98°
2026-05-07 14:23 50.12459 8.10888 35007 ft 443 kts 98°
2026-05-07 14:24 50.11551 8.20365 35016 ft 443 kts 98°
2026-05-07 14:24 50.10638 8.29824 35013 ft 443 kts 98°
2026-05-07 14:25 50.09722 8.39217 35021 ft 442 kts 98°
2026-05-07 14:25 50.08792 8.48680 35023 ft 442 kts 98°
2026-05-07 14:26 50.07856 8.58134 35015 ft 443 kts 98°
2026-05-07 14:26 50.06916 8.67552 35024 ft 443 kts 98°
2026-05-07 14:27 50.05961 8.77008 35018 ft 443 kts 99°
2026-05-07 14:27 50.05141 8.86448 35020 ft 443 kts 97°
2026-05-07 14:28 50.04395 8.95936 35024 ft 444 kts 97°
2026-05-07 14:28 50.03641 9.05426 35027 ft 444 kts 97°
2026-05-07 14:29 50.02879 9.14913 35024 ft 444 kts 97°
2026-05-07 14:29 50.02109 9.24366 35017 ft 444 kts 97°
2026-05-07 14:30 50.01329 9.33856 35010 ft 444 kts 97°
2026-05-07 14:30 50.00539 9.43365 34996 ft 444 kts 97°
2026-05-07 14:31 49.99744 9.52828 34987 ft 445 kts 97°
2026-05-07 14:31 49.98938 9.62339 34991 ft 444 kts 97°
2026-05-07 14:32 49.98130 9.71792 34995 ft 444 kts 97°
2026-05-07 14:32 49.97313 9.81247 34997 ft 444 kts 97°
2026-05-07 14:33 49.96483 9.90771 35000 ft 444 kts 98°
2026-05-07 14:33 49.95650 10.00220 35000 ft 444 kts 98°
2026-05-07 14:34 49.94809 10.09667 34990 ft 445 kts 97°
2026-05-07 14:34 49.93957 10.19167 34997 ft 446 kts 97°
2026-05-07 14:35 49.93099 10.28638 34990 ft 445 kts 98°
2026-05-07 14:35 49.91931 10.38050 34997 ft 445 kts 104°
2026-05-07 14:36 49.90036 10.47177 34992 ft 444 kts 111°
2026-05-07 14:36 49.87736 10.56058 34988 ft 444 kts 112°
2026-05-07 14:37 49.85430 10.64901 34984 ft 444 kts 112°
2026-05-07 14:37 49.81953 10.78232 34996 ft 445 kts 112°
2026-05-07 14:38 49.79649 10.87036 34993 ft 445 kts 112°
2026-05-07 14:38 49.77314 10.95925 34997 ft 444 kts 113°
2026-05-07 14:39 49.74999 11.04703 34997 ft 444 kts 113°
2026-05-07 14:39 49.72661 11.13535 34995 ft 444 kts 113°
2026-05-07 14:40 49.70325 11.22327 34993 ft 445 kts 113°
2026-05-07 14:40 49.67986 11.31104 34992 ft 445 kts 113°
2026-05-07 14:41 49.65642 11.39954 34986 ft 446 kts 111°
2026-05-07 14:41 49.63683 11.48976 34983 ft 446 kts 108°
2026-05-07 14:42 49.61798 11.58080 34985 ft 445 kts 108°
2026-05-07 14:42 49.59923 11.67084 34981 ft 445 kts 109°
2026-05-07 14:43 49.58020 11.76179 34974 ft 446 kts 109°
2026-05-07 14:43 49.56118 11.85217 34976 ft 446 kts 109°
2026-05-07 14:44 49.54202 11.94285 34974 ft 447 kts 109°
2026-05-07 14:44 49.52280 12.03342 34968 ft 447 kts 109°
2026-05-07 14:45 49.50357 12.12355 34969 ft 447 kts 110°
2026-05-07 14:45 49.48419 12.21400 34970 ft 447 kts 110°
2026-05-07 14:46 49.46476 12.30434 34970 ft 447 kts 110°
2026-05-07 14:46 49.44516 12.39504 34970 ft 447 kts 110°
2026-05-07 14:47 49.42556 12.48540 34968 ft 447 kts 110°
2026-05-07 14:47 49.40590 12.57558 34970 ft 448 kts 110°
2026-05-07 14:48 49.38613 12.66597 34968 ft 448 kts 111°
2026-05-07 14:48 49.36637 12.75576 34970 ft 447 kts 111°
2026-05-07 14:49 49.34507 12.84496 34973 ft 447 kts 113°
2026-05-07 14:49 49.32304 12.93391 34972 ft 447 kts 113°
2026-05-07 14:50 49.30117 13.02267 34972 ft 447 kts 113°
2026-05-07 14:50 49.27942 13.11091 34969 ft 447 kts 113°
2026-05-07 14:51 49.25751 13.19954 34962 ft 446 kts 113°
2026-05-07 14:51 49.23531 13.28816 34957 ft 446 kts 114°
2026-05-07 14:52 49.21186 13.37538 34929 ft 447 kts 115°
2026-05-07 14:52 49.20002 13.41901 34625 ft 447 kts 115°
2026-05-07 14:52 49.18809 13.46306 34184 ft 444 kts 115°
2026-05-07 14:53 49.17633 13.50644 33676 ft 444 kts 115°
2026-05-07 14:53 49.16460 13.54969 33153 ft 447 kts 115°
2026-05-07 14:53 49.15270 13.59353 32533 ft 451 kts 115°
2026-05-07 14:53 49.14067 13.63780 31775 ft 454 kts 115°
2026-05-07 14:54 49.12863 13.68205 31022 ft 457 kts 116°
2026-05-07 14:54 49.11642 13.72683 30261 ft 458 kts 116°
2026-05-07 14:54 49.10443 13.77078 29745 ft 453 kts 116°
2026-05-07 14:54 49.09240 13.81482 29214 ft 448 kts 116°
2026-05-07 14:55 49.08054 13.85816 28703 ft 443 kts 116°
2026-05-07 14:55 49.06870 13.90130 28179 ft 439 kts 116°
2026-05-07 14:55 49.05703 13.94379 27669 ft 435 kts 116°
2026-05-07 14:55 49.04540 13.98604 27159 ft 431 kts 116°
2026-05-07 14:56 49.03388 14.02777 26648 ft 428 kts 116°
2026-05-07 14:56 49.02248 14.06897 26144 ft 424 kts 116°
2026-05-07 14:56 49.01109 14.11009 25627 ft 421 kts 116°
2026-05-07 14:56 48.99974 14.15106 25103 ft 418 kts 116°
2026-05-07 14:57 48.98856 14.19132 24586 ft 415 kts 116°
2026-05-07 14:57 48.97733 14.23167 24069 ft 412 kts 116°
2026-05-07 14:57 48.96629 14.27127 23547 ft 408 kts 116°
2026-05-07 14:57 48.95491 14.31026 23048 ft 404 kts 120°
2026-05-07 14:58 48.94130 14.34735 22545 ft 397 kts 126°
2026-05-07 14:58 48.92579 14.38109 22105 ft 389 kts 130°
2026-05-07 14:58 48.90940 14.41371 21607 ft 386 kts 131°
2026-05-07 14:58 48.89297 14.44595 21112 ft 383 kts 131°
2026-05-07 14:59 48.87685 14.47757 20638 ft 380 kts 131°
2026-05-07 14:59 48.86089 14.50900 20168 ft 377 kts 131°
2026-05-07 14:59 48.84489 14.54051 19686 ft 374 kts 131°
2026-05-07 14:59 48.82916 14.57151 19221 ft 371 kts 131°
2026-05-07 15:00 48.81356 14.60224 18750 ft 369 kts 131°
2026-05-07 15:00 48.79795 14.63299 18284 ft 366 kts 131°
2026-05-07 15:00 48.78263 14.66314 17817 ft 364 kts 131°
2026-05-07 15:00 48.76721 14.69342 17360 ft 361 kts 131°
2026-05-07 15:01 48.75210 14.72310 17139 ft 349 kts 131°
2026-05-07 15:01 48.73761 14.75156 16999 ft 336 kts 131°
2026-05-07 15:01 48.72361 14.77902 16948 ft 322 kts 131°
2026-05-07 15:01 48.70995 14.80570 16439 ft 325 kts 132°
2026-05-07 15:02 48.69604 14.83273 15845 ft 328 kts 131°
2026-05-07 15:02 48.68219 14.85968 15348 ft 328 kts 131°
2026-05-07 15:02 48.66825 14.88684 14992 ft 323 kts 131°
2026-05-07 15:02 48.65460 14.91342 14473 ft 325 kts 131°
2026-05-07 15:03 48.64074 14.94036 14082 ft 321 kts 131°
2026-05-07 15:03 48.62719 14.96669 13738 ft 316 kts 131°
2026-05-07 15:03 48.61396 14.99236 13404 ft 311 kts 131°
2026-05-07 15:03 48.60073 15.01802 13049 ft 307 kts 130°
2026-05-07 15:04 48.59013 15.04622 12771 ft 326 kts 111°
2026-05-07 15:04 48.58437 15.08029 12525 ft 339 kts 103°
2026-05-07 15:04 48.57996 15.11517 12274 ft 340 kts 102°
2026-05-07 15:04 48.57559 15.14987 12025 ft 339 kts 103°
2026-05-07 15:05 48.57093 15.18482 11772 ft 338 kts 103°
2026-05-07 15:05 48.56612 15.21911 11521 ft 336 kts 104°
2026-05-07 15:05 48.56113 15.25360 11270 ft 335 kts 104°
2026-05-07 15:05 48.55610 15.28765 11020 ft 334 kts 104°
2026-05-07 15:06 48.55101 15.32179 10767 ft 332 kts 104°
2026-05-07 15:06 48.54592 15.35549 10537 ft 324 kts 104°
2026-05-07 15:06 48.54108 15.38759 10463 ft 309 kts 104°
2026-05-07 15:06 48.53641 15.41849 10354 ft 302 kts 104°
2026-05-07 15:07 48.53171 15.44924 10179 ft 300 kts 104°
2026-05-07 15:07 48.52703 15.47992 10003 ft 300 kts 104°
2026-05-07 15:07 48.52237 15.51026 9830 ft 298 kts 104°
2026-05-07 15:07 48.51765 15.54097 9653 ft 298 kts 104°
2026-05-07 15:08 48.51300 15.57112 9477 ft 296 kts 103°
2026-05-07 15:08 48.50839 15.60109 9297 ft 295 kts 103°
2026-05-07 15:08 48.50375 15.63122 9117 ft 294 kts 103°
2026-05-07 15:08 48.49913 15.66116 8946 ft 294 kts 104°
2026-05-07 15:09 48.49454 15.69083 8778 ft 293 kts 104°
2026-05-07 15:09 48.48991 15.72070 8601 ft 292 kts 104°
2026-05-07 15:09 48.48526 15.75062 8420 ft 291 kts 104°
2026-05-07 15:09 48.48064 15.78026 8246 ft 290 kts 104°
2026-05-07 15:10 48.47607 15.80955 8072 ft 289 kts 104°
2026-05-07 15:10 48.47149 15.83892 7901 ft 289 kts 103°
2026-05-07 15:10 48.46692 15.86805 7731 ft 287 kts 103°
2026-05-07 15:10 48.46230 15.89747 7554 ft 286 kts 103°
2026-05-07 15:11 48.45777 15.92631 7381 ft 285 kts 103°
2026-05-07 15:11 48.45321 15.95535 7207 ft 285 kts 103°
2026-05-07 15:11 48.44868 15.98412 7033 ft 284 kts 103°
2026-05-07 15:11 48.44413 16.01296 6862 ft 283 kts 103°
2026-05-07 15:12 48.43952 16.04210 6686 ft 283 kts 103°
2026-05-07 15:12 48.43502 16.07049 6523 ft 282 kts 103°
2026-05-07 15:12 48.43046 16.09918 6379 ft 282 kts 103°
2026-05-07 15:12 48.42593 16.12781 6255 ft 283 kts 103°
2026-05-07 15:13 48.42137 16.15644 6132 ft 282 kts 103°
2026-05-07 15:13 48.41677 16.18533 6007 ft 282 kts 103°
2026-05-07 15:13 48.41220 16.21389 5887 ft 281 kts 103°
2026-05-07 15:13 48.40760 16.24252 5765 ft 280 kts 103°
2026-05-07 15:14 48.40309 16.27072 5642 ft 280 kts 103°
2026-05-07 15:14 48.39851 16.29920 5519 ft 279 kts 103°
2026-05-07 15:14 48.39393 16.32772 5425 ft 278 kts 103°
2026-05-07 15:14 48.38938 16.35594 5347 ft 277 kts 103°
2026-05-07 15:15 48.38486 16.38399 5269 ft 277 kts 103°
2026-05-07 15:15 48.38040 16.41154 5189 ft 266 kts 103°
2026-05-07 15:15 48.37610 16.43798 5109 ft 254 kts 103°
2026-05-07 15:15 48.36976 16.46172 5014 ft 241 kts 128°
2026-05-07 15:16 48.35727 16.47682 4974 ft 224 kts 156°
2026-05-07 15:16 48.34294 16.48469 4920 ft 220 kts 165°
2026-05-07 15:16 48.32819 16.49078 4687 ft 220 kts 166°
2026-05-07 15:16 48.31355 16.49653 4403 ft 221 kts 166°
2026-05-07 15:17 48.29864 16.50254 4110 ft 221 kts 165°
2026-05-07 15:17 48.28384 16.50868 3821 ft 220 kts 165°
2026-05-07 15:17 48.26917 16.51487 3533 ft 220 kts 165°
2026-05-07 15:17 48.25467 16.52105 3243 ft 213 kts 164°
2026-05-07 15:18 48.24081 16.52695 2996 ft 200 kts 165°
2026-05-07 15:18 48.22806 16.53237 2786 ft 186 kts 165°
2026-05-07 15:18 48.21582 16.53756 2539 ft 175 kts 165°
2026-05-07 15:18 48.20446 16.54238 2287 ft 165 kts 165°
2026-05-07 15:19 48.19377 16.54690 2055 ft 155 kts 165°
2026-05-07 15:19 48.18373 16.55115 1845 ft 144 kts 164°
2026-05-07 15:19 48.17441 16.55509 1661 ft 137 kts 165°
2026-05-07 15:19 48.16524 16.55898 1503 ft 136 kts 165°
2026-05-07 15:20 48.15614 16.56283 1335 ft 136 kts 166°
2026-05-07 15:20 48.14702 16.56669 1160 ft 136 kts 166°
2026-05-07 15:20 48.13797 16.57052 981 ft 135 kts 166°
2026-05-07 15:20 48.12889 16.57426 795 ft 135 kts 166°
2026-05-07 15:21 48.11990 16.57814 619 ft 133 kts 165°
2026-05-07 15:21 48.11160 16.58167 593 ft 112 kts 166°
2026-05-07 15:21 48.10569 16.58414 599 ft 62 kts 164°
2026-05-07 15:21 48.10287 16.58456 600 ft 32 kts 191°
2026-05-07 15:22 48.10163 16.58411 601 ft 12 kts 194°
2026-05-07 15:22 48.10142 16.58324 603 ft 10 kts 315°
2026-05-07 15:22 48.10213 16.58285 603 ft 11 kts 343°
2026-05-07 15:22 48.10321 16.58239 604 ft 19 kts 343°
2026-05-07 15:23 48.10472 16.58175 602 ft 24 kts 343°
2026-05-07 15:23 48.10644 16.58102 600 ft 26 kts 343°
2026-05-07 15:23 48.10828 16.58024 599 ft 28 kts 343°
2026-05-07 15:23 48.11026 16.57940 596 ft 28 kts 343°
2026-05-07 15:24 48.11210 16.57862 596 ft 27 kts 343°
2026-05-07 15:24 48.11385 16.57788 595 ft 16 kts 343°
2026-05-07 15:24 48.11494 16.57726 594 ft 15 kts 294°
2026-05-07 15:24 48.11508 16.57591 597 ft 13 kts 310°
2026-05-07 15:25 48.11565 16.57486 598 ft 12 kts 300°
2026-05-07 15:25 48.11603 16.57375 601 ft 11 kts 296°
2026-05-07 15:25 48.11636 16.57274 603 ft 10 kts 295°
2026-05-07 15:25 48.11683 16.57203 604 ft 10 kts 347°
2026-05-07 15:26 48.11767 16.57246 600 ft 15 kts 25°
2026-05-07 15:26 48.11826 16.57273 597 ft 8 kts 336°
2026-05-07 15:26 48.11865 16.57200 597 ft 9 kts 319°
2026-05-07 15:26 48.11910 16.57114 596 ft 11 kts 295°
2026-05-07 15:27 48.11938 16.57029 595 ft 5 kts 308°
2026-05-07 15:27 48.11979 16.57034 593 ft 4 kts 25°
2026-05-07 15:27 48.11997 16.57046 592 ft 0 kts 25°